User: anonymous   Login
Location: Unspecified
(0.0000°N, 0.0000°E)
Time: 23:36:29
(UTC+00:00)
Language:

OBJECT E - Orbit

View from above orbital plane
View from above orbital plane
View from above satellite
View from above satellite

Ground track
Ground track

The orbit data is extracted from the following two-line orbital elements,

1 43666U 18083E   19048.81721319  .00000796  00000-0  43285-4 0  9997
2 43666  97.5318  74.0654 0013716 246.8152 219.3484 15.17307833 16952
Epoch (UTC): 17 February 2019 19:36:47
Eccentricity: 0.0013716
inclination: 97.5318°
perigee height: 504 km
apogee height: 523 km
right ascension of ascending node: 74.0654°
argument of perigee: 246.8152°
revolutions per day: 15.17307833
mean anomaly at epoch: 219.3484°
orbit number at epoch: 1695

The dashed part of the orbit path shows where the satellite is in the earth's shadow,  

DLR